Temp
-6 -6 -6 -5 -6 -5 -5 -5 -4 -4 -5 -4 -4 -4 -4 -4 -5 -5 -6 -6 -6 -5 -6 -6 -6 -6 -6 -6 -6 -6 -7 -7 -7 -7 -7 -7 -7 -7 -8 -8 -8 -8 -8 -8 -8 -8 -8 -7 -8
-6 -6 -6 -5 -5 -5 -5 -5 -4 -4 -5 -4 -4 -4 -4 -4 -5 -5 -5 -5 -6 -5 -5 -6 -6 -6 -6 -6 -7 -7 -7 -7 -7 -8 -8 -7 -7 -8 -8 -8 -8 -8 -8 -8 -8 -8 -8 -8 -8
-6 -6 -5 -5 -5 -5 -5 -4 -4 -4 -5 -4 -4 -4 -4 -5 -5 -5 -6 -6 -6 -5 -6 -6 -6 -6 -7 -6 -7 -7 -7 -7 -7 -8 -8 -8 -7 -8 -8 -8 -8 -9 -9 -8 -8 -8 -8 -8 -8
-6 -5 -5 -5 -5 -5 -4 -4 -4 -4 -5 -5 -5 -5 -5 -5 -6 -5 -6 -6 -6 -6 -6 -6 -6 -7 -7 -6 -7 -7 -7 -7 -8 -8 -8 -8 -8 -8 -8 -8 -9 -8 -9 -9 -9 -9 -8 -8 -8
-6 -5 -5 -5 -5 -5 -4 -4 -4 -4 -4 -5 -5 -5 -5 -5 -6 -6 -6 -6 -6 -6 -6 -6 -7 -7 -7 -7 -7 -7 -8 -8 -8 -8 -8 -8 -8 -8 -8 -8 -9 -9 -9 -9 -9 -9 -9 -9 -8
-6 -5 -5 -5 -5 -5 -4 -4 -4 -4 -5 -5 -5 -5 -5 -6 -6 -6 -6 -6 -6 -6 -7 -7 -7 -7 -7 -7 -7 -8 -8 -8 -8 -8 -8 -8 -8 -8 -8 -8 -8 -8 -9 -9 -9 -9 -9 -9 -9
-6 -6 -5 -5 -5 -5 -4 -4 -4 -5 -5 -5 -5 -5 -5 -6 -6 -6 -6 -6 -6 -7 -7 -7 -7 -7 -7 -7 -7 -8 -8 -8 -8 -8 -8 -8 -8 -8 -8 -8 -8 -8 -9 -9 -9 -9 -9 -9 -9
-6 -5 -5 -5 -5 -5 -5 -4 -4 -4 -5 -5 -5 -5 -5 -6 -6 -6 -6 -7 -7 -7 -7 -7 -7 -7 -7 -7 -8 -8 -8 -8 -8 -8 -8 -8 -8 -8 -8 -8 -8 -8 -9 -9 -9 -9 -9 -9 -9
-6 -5 -5 -5 -5 -5 -5 -4 -4 -5 -5 -5 -5 -5 -5 -6 -6 -6 -6 -7 -7 -7 -7 -7 -7 -7 -7 -8 -8 -8 -8 -8 -9 -8 -8 -8 -8 -8 -8 -8 -8 -9 -9 -9 -9 -9 -9 -9 -9
-6 -6 -5 -5 -5 -5 -5 -5 -5 -5 -5 -5 -6 -5 -6 -6 -6 -6 -6 -6 -7 -7 -7 -7 -7 -8 -8 -8 -8 -8 -8 -8 -9 -9 -8 -8 -8 -8 -8 -9 -9 -9 -9 -9 -9 -9 -9 -9 -9
-6 -6 -6 -5 -5 -5 -5 -5 -5 -5 -5 -5 -5 -6 -6 -6 -6 -7 -7 -7 -7 -7 -7 -7 -7 -8 -8 -8 -8 -8 -8 -9 -9 -9 -9 -8 -8 -8 -9 -9 -9 -9 -9 -8 -8 -8 -8 -8 -8
-6 -6 -6 -6 -5 -5 -5 -5 -5 -5 -5 -5 -5 -5 -5 -5 -6 -7 -7 -7 -7 -7 -7 -7 -7 -8 -8 -8 -8 -8 -8 -9 -9 -9 -9 -8 -8 -9 -9 -9 -9 -9 -9 -8 -8 -8 -8 -8 -8
-6 -6 -6 -6 -5 -5 -5 -5 -5 -6 -6 -5 -5 -5 -6 -6 -6 -7 -7 -7 -7 -8 -8 -8 -8 -8 -8 -8 -8 -8 -8 -8 -8 -9 -9 -9 -9 -9 -9 -9 -9 -9 -9 -8 -8 -8 -8 -8 -8
-6 -6 -6 -6 -6 -5 -5 -5 -5 -6 -6 -6 -5 -5 -5 -6 -6 -7 -7 -8 -8 -8 -8 -8 -8 -8 -8 -8 -8 -8 -8 -8 -8 -8 -8 -9 -9 -9 -9 -9 -9 -9 -9 -9 -9 -9 -9 -9 -9
-6 -6 -6 -6 -6 -6 -6 -5 -6 -5 -5 -6 -6 -6 -6 -6 -6 -7 -7 -7 -8 -8 -7 -8 -8 -8 -8 -8 -8 -8 -8 -8 -8 -8 -8 -8 -9 -9 -9 -9 -9 -9 -9 -9 -9 -9 -9 -9 -9
-6 -6 -6 -7 -6 -6 -6 -5 -6 -6 -6 -6 -6 -6 -6 -6 -6 -6 -7 -7 -8 -8 -7 -7 -8 -8 -8 -8 -8 -8 -8 -8 -8 -8 -8 -9 -9 -9 -9 -9 -9 -9 -9 -9 -9 -9 -9 -9 -10
-6 -6 -6 -7 -6 -6 -6 -6 -6 -6 -6 -6 -6 -6 -6 -6 -7 -7 -7 -7 -7 -8 -8 -8 -8 -8 -8 -8 -8 -8 -8 -8 -9 -9 -9 -9 -9 -9 -9 -9 -9 -9 -9 -9 -9 -9 -9 -9 -9
-7 -6 -6 -6 -6 -6 -6 -6 -7 -6 -6 -6 -6 -6 -6 -6 -7 -7 -7 -7 -7 -8 -8 -8 -8 -8 -8 -8 -8 -8 -8 -9 -9 -9 -9 -9 -9 -9 -9 -9 -9 -9 -9 -9 -9 -9 -9 -9 -9
-7 -6 -6 -7 -7 -6 -6 -6 -6 -6 -6 -6 -7 -6 -6 -6 -7 -6 -7 -7 -7 -8 -8 -8 -8 -8 -8 -8 -8 -8 -8 -9 -9 -9 -9 -9 -9 -9 -9 -9 -9 -9 -9 -9 -9 -9 -9 -9 -9
-7 -7 -6 -7 -7 -6 -6 -6 -6 -6 -6 -6 -6 -6 -6 -6 -7 -7 -7 -7 -8 -8 -7 -7 -8 -8 -8 -8 -8 -8 -8 -9 -9 -9 -9 -9 -9 -9 -10 -10 -10 -10 -10 -10 -10 -10 -10 -10 -10
-7 -7 -7 -7 -7 -6 -6 -5 -5 -6 -5 -6 -6 -6 -6 -6 -7 -7 -8 -8 -8 -8 -8 -8 -8 -8 -8 -8 -8 -8 -9 -9 -9 -9 -9 -10 -10 -10 -10 -10 -10 -10 -10 -10 -10 -10 -10 -10 -11
-7 -8 -8 -8 -8 -7 -8 -4 -4 -5 -6 -6 -6 -7 -7 -7 -7 -7 -8 -8 -8 -8 -8 -8 -8 -8 -8 -8 -8 -9 -9 -9 -9 -10 -10 -10 -10 -10 -10 -10 -10 -10 -10 -10 -10 -10 -11 -11 -12
-7 -8 -8 -8 -8 -7 -7 -6 -4 -5 -6 -7 -7 -7 -7 -7 -7 -7 -8 -8 -9 -8 -8 -8 -8 -8 -9 -9 -9 -9 -9 -10 -10 -10 -10 -10 -10 -10 -10 -10 -10 -10 -10 -11 -11 -11 -12 -12 -12
-8 -8 -8 -9 -8 -8 -7 -8 -4 -5 -6 -6 -7 -7 -8 -8 -8 -8 -9 -9 -9 -9 -9 -9 -9 -9 -9 -9 -9 -9 -10 -10 -10 -10 -10 -10 -11 -11 -11 -11 -11 -11 -11 -11 -12 -12 -12 -12 -12
-10 -10 -10 -9 -8 -7 -7 -8 -5 -6 -7 -7 -7 -7 -8 -8 -8 -8 -9 -9 -9 -9 -9 -9 -9 -9 -9 -9 -10 -10 -10 -11 -10 -10 -11 -11 -11 -11 -11 -11 -11 -11 -11 -12 -12 -13 -13 -13 -13
-10 -11 -10 -10 -10 -8 -9 -7 -5 -6 -7 -8 -8 -8 -9 -9 -9 -9 -9 -10 -10 -9 -9 -9 -9 -9 -9 -10 -10 -10 -11 -11 -11 -11 -11 -11 -11 -11 -11 -11 -11 -11 -12 -12 -13 -13 -13 -13 -14
-10 -10 -11 -13 -12 -11 -8 -7 -7 -7 -7 -8 -9 -8 -9 -9 -9 -9 -10 -10 -9 -10 -9 -9 -9 -10 -10 -10 -10 -10 -11 -11 -11 -11 -11 -11 -11 -11 -11 -12 -12 -12 -12 -13 -13 -14 -14 -14 -16
-11 -12 -12 -12 -12 -12 -9 -9 -8 -7 -8 -8 -9 -9 -9 -9 -10 -10 -11 -10 -10 -10 -10 -10 -10 -10 -10 -10 -10 -11 -11 -11 -11 -11 -11 -11 -11 -11 -12 -12 -12 -12 -13 -13 -14 -14 -14 -15 -17
-12 -12 -13 -13 -13 -13 -12 -9 -8 -8 -8 -9 -9 -10 -10 -10 -10 -10 -10 -10 -10 -10 -10 -10 -11 -11 -11 -11 -11 -11 -11 -11 -11 -11 -11 -11 -11 -12 -12 -12 -12 -13 -13 -14 -14 -14 -15 -16 -18
-13 -14 -14 -15 -12 -13 -13 -9 -9 -9 -9 -10 -10 -10 -11 -11 -11 -11 -11 -10 -10 -10 -10 -11 -11 -11 -11 -11 -11 -11 -11 -11 -11 -11 -11 -12 -12 -12 -12 -12 -12 -13 -13 -14 -14 -14 -15 -17 -18
Height
5917 5918 5919 5920 5923 5921 5923 5924 5924 5926 5927 5926 5927 5929 5929 5929 5928 5930 5929 5928 5927 5927 5925 5925 5925 5925 5924 5923 5922 5921 5920 5918 5916 5914 5913 5911 5909 5908 5906 5904 5902 5901 5899 5896 5895 5894 5892 5891 5890
5917 5919 5920 5920 5922 5921 5922 5923 5924 5926 5927 5927 5928 5929 5929 5929 5928 5928 5929 5928 5927 5926 5926 5926 5925 5924 5924 5924 5923 5921 5920 5918 5916 5914 5912 5910 5909 5907 5906 5904 5902 5900 5898 5897 5895 5894 5892 5891 5890
5917 5919 5920 5920 5921 5923 5922 5923 5925 5927 5927 5927 5928 5929 5929 5929 5929 5928 5928 5928 5927 5927 5926 5926 5925 5924 5924 5923 5922 5921 5919 5917 5915 5913 5911 5909 5907 5906 5904 5903 5901 5899 5898 5896 5894 5893 5892 5890 5889
5917 5919 5920 5921 5923 5923 5924 5925 5925 5927 5927 5927 5927 5928 5929 5929 5929 5928 5928 5927 5927 5926 5926 5925 5924 5924 5923 5922 5921 5919 5917 5916 5913 5911 5910 5908 5905 5904 5902 5901 5899 5897 5896 5894 5893 5891 5890 5888 5888
5917 5918 5920 5921 5922 5922 5923 5924 5925 5926 5927 5927 5927 5927 5928 5928 5928 5927 5927 5928 5927 5926 5925 5924 5924 5923 5922 5920 5919 5917 5915 5913 5912 5910 5907 5905 5904 5902 5900 5899 5897 5895 5894 5892 5891 5890 5888 5886 5886
5917 5917 5920 5920 5921 5922 5923 5923 5924 5926 5926 5925 5926 5926 5927 5927 5927 5927 5926 5926 5926 5925 5924 5923 5923 5922 5920 5919 5917 5915 5914 5911 5909 5907 5905 5902 5900 5899 5897 5896 5894 5893 5892 5890 5889 5887 5886 5884 5883
5916 5917 5918 5920 5921 5922 5923 5923 5923 5925 5924 5924 5924 5925 5926 5926 5925 5925 5925 5925 5924 5924 5923 5923 5921 5920 5918 5917 5915 5913 5911 5909 5907 5905 5902 5900 5898 5896 5894 5893 5892 5891 5889 5888 5887 5885 5884 5882 5880
5915 5916 5916 5919 5919 5920 5920 5921 5922 5923 5923 5923 5923 5923 5924 5924 5923 5924 5924 5923 5923 5923 5922 5921 5920 5918 5916 5915 5913 5911 5908 5906 5904 5901 5899 5897 5895 5894 5892 5891 5889 5888 5887 5885 5884 5882 5880 5879 5878
5913 5915 5916 5919 5920 5919 5918 5919 5919 5920 5921 5921 5921 5921 5921 5921 5921 5922 5922 5922 5921 5920 5919 5918 5917 5916 5914 5912 5910 5908 5905 5902 5899 5896 5894 5892 5891 5891 5890 5888 5886 5884 5883 5881 5879 5877 5876 5874 5873
5911 5913 5914 5916 5917 5916 5915 5917 5918 5918 5918 5919 5918 5917 5919 5919 5919 5918 5919 5919 5919 5917 5916 5915 5914 5912 5910 5909 5907 5904 5902 5899 5895 5892 5889 5887 5887 5886 5886 5884 5882 5880 5878 5876 5874 5872 5871 5869 5868
5910 5911 5911 5912 5913 5914 5913 5913 5915 5916 5915 5915 5916 5914 5915 5915 5916 5915 5915 5914 5914 5914 5913 5913 5911 5909 5907 5905 5902 5900 5898 5895 5892 5888 5886 5884 5883 5883 5881 5880 5877 5875 5873 5870 5868 5867 5866 5864 5862
5907 5908 5909 5908 5909 5910 5910 5910 5910 5912 5911 5911 5911 5911 5910 5910 5911 5911 5910 5910 5909 5909 5908 5908 5907 5905 5903 5901 5898 5896 5893 5891 5888 5885 5881 5879 5879 5878 5876 5874 5872 5870 5868 5866 5863 5861 5860 5859 5857
5904 5905 5905 5903 5904 5906 5906 5907 5907 5908 5908 5906 5905 5907 5907 5906 5906 5907 5906 5905 5905 5904 5903 5902 5902 5900 5898 5896 5894 5891 5888 5886 5884 5880 5877 5874 5874 5872 5871 5869 5867 5864 5862 5860 5857 5856 5854 5852 5851
5900 5900 5901 5900 5899 5901 5902 5902 5903 5903 5902 5901 5901 5900 5902 5902 5901 5900 5901 5900 5899 5899 5898 5897 5896 5895 5893 5890 5888 5885 5882 5880 5878 5875 5871 5869 5867 5866 5864 5862 5860 5858 5855 5853 5851 5849 5847 5845 5843
5896 5897 5896 5898 5896 5895 5896 5899 5900 5894 5897 5897 5896 5895 5895 5895 5895 5895 5894 5894 5893 5893 5893 5891 5891 5889 5887 5885 5881 5879 5876 5874 5871 5868 5865 5863 5861 5859 5857 5855 5853 5851 5849 5846 5843 5841 5839 5837 5835
5891 5892 5894 5894 5891 5890 5889 5895 5892 5889 5890 5890 5890 5890 5890 5889 5888 5888 5888 5888 5887 5887 5886 5886 5885 5883 5881 5878 5875 5872 5870 5867 5864 5862 5859 5857 5855 5853 5850 5848 5845 5843 5840 5837 5835 5832 5830 5827 5826
5887 5887 5886 5884 5885 5883 5883 5887 5886 5882 5883 5882 5881 5882 5883 5882 5882 5882 5880 5881 5881 5880 5879 5879 5878 5876 5874 5871 5868 5865 5862 5860 5857 5854 5852 5850 5847 5844 5842 5839 5836 5833 5830 5827 5824 5822 5820 5817 5814
5877 5876 5877 5879 5881 5876 5875 5879 5878 5875 5873 5875 5875 5874 5873 5873 5875 5871 5871 5873 5874 5873 5872 5871 5871 5869 5867 5864 5861 5858 5855 5852 5849 5846 5843 5841 5837 5834 5831 5829 5826 5822 5818 5815 5812 5810 5808 5805 5802
5870 5869 5869 5872 5869 5867 5867 5868 5874 5868 5865 5866 5866 5866 5864 5865 5863 5862 5863 5864 5865 5865 5864 5862 5863 5861 5859 5856 5852 5849 5846 5843 5840 5837 5834 5831 5828 5825 5821 5818 5814 5811 5807 5804 5801 5798 5794 5790 5785
5863 5861 5863 5864 5861 5855 5855 5859 5863 5860 5860 5859 5859 5858 5856 5853 5852 5853 5853 5854 5856 5855 5855 5854 5854 5853 5850 5847 5843 5840 5837 5834 5831 5827 5824 5821 5818 5815 5811 5807 5803 5800 5797 5793 5788 5784 5779 5773 5766
5855 5852 5851 5849 5848 5845 5842 5845 5848 5853 5851 5850 5849 5847 5846 5846 5845 5843 5843 5844 5845 5846 5845 5845 5846 5844 5840 5837 5834 5831 5828 5825 5822 5818 5815 5811 5808 5804 5800 5796 5792 5789 5785 5779 5774 5769 5762 5755 5746
5844 5844 5838 5836 5833 5833 5832 5826 5834 5837 5839 5839 5838 5836 5834 5832 5833 5833 5833 5833 5834 5834 5834 5835 5836 5835 5831 5828 5824 5821 5818 5816 5812 5809 5805 5802 5798 5793 5789 5786 5782 5777 5772 5766 5759 5751 5744 5735 5727
5832 5830 5827 5825 5822 5820 5822 5814 5820 5823 5827 5827 5823 5821 5822 5822 5822 5823 5824 5823 5822 5824 5825 5825 5825 5824 5821 5818 5815 5812 5809 5806 5803 5799 5795 5791 5787 5783 5778 5774 5769 5764 5758 5752 5743 5734 5725 5714 5704
5818 5816 5814 5812 5808 5800 5813 5805 5812 5815 5814 5814 5814 5811 5810 5811 5812 5813 5813 5813 5814 5814 5815 5816 5815 5813 5810 5808 5804 5802 5799 5796 5792 5788 5785 5781 5776 5771 5767 5762 5757 5751 5745 5737 5727 5717 5706 5694 5680
5807 5803 5797 5793 5788 5791 5799 5789 5795 5805 5805 5801 5800 5801 5802 5801 5803 5804 5803 5803 5804 5804 5804 5805 5804 5802 5800 5797 5794 5792 5789 5786 5782 5778 5775 5770 5766 5761 5756 5751 5745 5738 5731 5721 5711 5701 5687 5674 5659
5791 5787 5782 5773 5775 5779 5778 5770 5789 5791 5792 5792 5789 5787 5789 5789 5791 5793 5793 5793 5795 5794 5794 5794 5793 5790 5789 5787 5785 5782 5779 5776 5772 5768 5765 5760 5755 5750 5745 5739 5733 5725 5716 5707 5696 5684 5670 5656 5639
5779 5769 5775 5763 5761 5756 5759 5764 5772 5778 5780 5780 5780 5778 5776 5779 5781 5782 5782 5783 5784 5783 5782 5782 5780 5778 5778 5776 5774 5772 5769 5766 5762 5759 5754 5750 5745 5739 5734 5728 5721 5712 5702 5692 5681 5668 5655 5638 5622
5757 5760 5753 5749 5743 5739 5741 5744 5755 5765 5768 5768 5768 5768 5769 5769 5770 5771 5772 5773 5772 5772 5770 5769 5768 5767 5767 5765 5763 5761 5759 5756 5752 5748 5743 5739 5734 5728 5723 5716 5708 5699 5689 5679 5667 5655 5640 5625 5609
5743 5740 5736 5733 5729 5724 5724 5727 5748 5751 5753 5755 5755 5756 5758 5758 5759 5758 5761 5762 5760 5760 5759 5759 5757 5756 5756 5754 5753 5751 5749 5745 5741 5737 5732 5728 5723 5717 5711 5704 5696 5687 5677 5666 5654 5642 5627 5611 5597
5725 5721 5720 5711 5713 5708 5709 5706 5736 5737 5738 5736 5741 5745 5746 5746 5748 5746 5746 5749 5748 5747 5748 5747 5747 5746 5744 5743 5743 5741 5738 5734 5730 5726 5721 5717 5711 5705 5699 5692 5684 5675 5665 5653 5641 5629 5612 5597 5585
Wind_Speed
13 14 14 15 14 14 17 17 15 13 11 9 8 8 8 9 9 10 13 8 6 6 11 12 13 17 18 18 18 15 13 12 12 13 14 16 17 18 18 16 13 13 15 17 18 18 16 12 8
11 13 15 15 17 20 18 16 16 14 11 8 7 7 8 12 9 8 8 7 5 4 5 6 9 13 17 18 19 19 17 15 14 14 15 15 15 16 17 17 17 15 14 14 14 14 15 15 17
12 13 16 17 19 16 17 16 14 12 11 9 7 8 10 14 12 9 7 6 4 2 1 4 8 13 17 17 20 21 23 17 14 13 14 16 16 15 16 15 16 16 16 17 16 15 15 15 14
12 13 17 17 13 11 12 12 12 12 12 9 9 10 12 14 12 10 9 5 3 3 3 5 9 15 18 20 22 24 24 21 16 16 16 16 18 17 16 16 16 16 16 16 16 17 17 16 15
14 15 17 16 12 13 12 11 11 11 11 12 10 11 13 15 13 12 8 7 6 8 8 9 11 16 20 21 24 25 25 22 19 18 19 20 21 20 19 17 17 18 18 17 19 18 18 20 18
15 16 17 17 14 14 13 12 12 12 12 11 10 13 15 15 16 15 12 9 10 9 8 9 13 18 21 23 24 25 25 23 21 20 20 22 22 21 16 16 17 18 18 18 18 19 20 21 23
17 19 19 14 12 12 13 14 14 12 12 13 12 14 16 18 20 17 14 13 12 11 10 12 16 21 23 24 25 25 25 23 21 22 24 24 22 20 17 16 17 18 19 20 21 22 22 23 24
20 22 20 16 15 11 16 14 12 12 12 14 14 15 16 19 24 21 19 17 17 17 16 16 19 23 25 25 26 27 26 24 23 24 24 24 19 14 15 17 18 19 20 22 24 25 26 25 25
22 22 18 15 11 12 15 14 13 13 13 14 16 16 17 21 25 24 23 20 21 21 20 20 23 25 25 26 27 28 27 26 26 26 27 25 18 15 17 18 21 24 25 26 26 27 27 26 27
21 20 19 14 14 16 16 14 15 14 15 13 18 19 20 21 24 26 26 26 25 24 23 23 26 24 25 27 28 28 28 27 27 28 29 28 21 19 19 21 24 27 28 28 29 28 27 27 26
19 19 17 18 18 17 17 16 17 17 17 18 19 23 21 23 23 27 28 27 27 27 26 26 25 24 27 29 29 28 28 27 27 29 30 28 23 21 21 23 25 27 29 32 32 28 25 25 25
18 19 18 19 19 19 19 19 21 18 19 21 21 23 24 25 27 28 30 28 29 29 30 26 24 26 28 29 29 28 28 27 27 29 30 29 24 23 25 27 28 29 32 33 31 29 28 27 27
18 19 19 23 23 21 21 20 22 21 21 25 25 24 25 28 30 30 30 31 31 29 29 26 26 27 28 29 29 30 29 29 29 30 31 30 27 26 28 30 31 31 33 33 31 30 33 34 36
22 23 25 26 25 25 23 23 21 23 26 27 27 28 27 28 32 34 33 33 34 32 29 28 27 27 28 30 30 31 31 31 31 32 33 30 29 29 31 32 32 34 35 35 34 35 37 38 39
25 26 27 25 28 29 29 24 21 31 27 27 29 32 32 31 33 33 36 35 35 33 29 30 28 28 29 31 33 34 34 33 32 33 33 32 32 32 33 33 34 34 37 38 38 39 41 41 42
28 29 28 27 32 33 34 24 28 32 30 30 32 32 32 33 34 36 37 35 35 34 32 31 30 29 30 32 35 36 37 36 34 35 35 33 33 34 36 35 35 38 41 42 41 42 42 43 43
30 30 31 34 34 36 36 31 31 35 34 34 34 33 32 34 34 34 37 38 37 35 34 32 30 29 31 35 37 38 39 38 36 36 36 34 35 36 36 36 39 42 44 43 43 43 45 45 45
35 38 37 35 33 38 39 34 34 37 39 37 35 35 35 35 33 40 39 36 36 35 36 35 32 31 34 37 39 40 41 40 37 38 37 37 37 38 38 39 42 45 46 46 47 48 49 50 52
40 40 40 36 39 43 43 40 32 39 42 39 37 36 37 37 40 41 39 36 36 36 38 38 35 35 37 40 43 43 43 42 39 40 39 39 38 38 41 43 45 47 48 50 51 53 53 56 61
42 43 42 40 42 49 48 43 37 40 40 41 38 39 39 40 42 42 40 38 36 38 40 41 38 38 41 43 46 46 45 43 41 41 41 40 40 43 44 46 47 49 50 52 55 56 59 64 66
43 44 45 47 48 50 51 45 42 37 39 40 41 41 41 40 42 43 42 39 39 39 42 43 40 41 43 46 48 47 45 42 42 41 41 41 44 45 46 47 49 50 52 54 57 62 64 66 69
46 44 50 51 53 52 52 53 46 43 41 40 41 42 43 43 41 43 42 39 40 41 42 42 42 43 46 48 48 47 44 42 42 41 43 45 46 46 47 48 50 51 53 57 62 65 67 70 72
50 50 52 54 56 57 55 59 51 47 42 40 43 45 41 40 42 43 41 41 39 39 41 42 41 45 48 47 46 44 42 42 42 43 46 46 46 48 49 49 49 51 55 60 65 67 68 73 78
49 51 51 52 55 62 53 56 51 48 46 45 42 41 41 39 39 42 43 40 35 38 41 40 44 47 45 45 43 42 42 41 43 45 46 46 47 48 49 48 50 53 57 64 66 68 71 77 87
44 46 49 55 59 59 50 55 54 45 42 43 45 44 37 36 39 39 42 41 37 40 43 43 45 44 44 41 40 41 41 41 44 45 45 46 46 47 47 49 51 55 60 64 67 69 75 82 90
52 50 55 59 58 56 54 60 46 41 37 34 39 41 37 33 32 37 41 36 35 42 42 41 41 41 39 38 40 40 40 42 43 45 45 45 46 47 49 49 53 57 61 64 67 70 77 84 88
59 62 52 53 57 60 61 56 48 40 37 35 31 37 37 33 32 32 35 29 34 37 38 37 38 39 37 38 39 40 41 42 44 45 45 45 46 48 49 50 54 57 60 64 67 72 79 84 76
66 61 63 61 63 65 64 60 50 43 40 37 36 35 34 34 32 33 29 30 37 37 36 35 36 36 37 38 39 40 40 42 45 45 45 45 45 48 48 51 54 58 61 64 67 74 81 84 67
65 67 64 65 65 67 68 65 47 44 45 41 39 35 33 35 33 37 31 34 39 37 33 32 36 36 36 39 40 40 41 43 45 44 44 44 46 47 49 51 55 58 60 64 68 75 81 74 63
65 65 66 67 71 71 71 72 50 46 45 45 42 38 35 37 36 42 40 37 39 40 35 36 36 37 38 40 40 41 42 45 44 42 43 45 46 47 50 52 55 57 60 65 70 76 83 64 60
Wind_Direction
193 194 190 179 185 168 157 156 161 153 141 145 129 136 132 135 126 117 136 120 82 90 82 68 54 45 35 28 19 14 7 11 11 7 7 11 14 15 16 22 28 29 28 34 44 41 33 17 346
205 202 191 186 173 160 161 170 167 153 149 169 148 163 168 160 162 155 148 121 137 101 81 54 34 28 23 24 22 12 358 350 355 357 350 351 353 2 8 8 10 6 3 5 11 19 22 20 18
210 213 193 186 171 166 173 172 166 157 165 173 169 179 181 176 167 172 162 159 190 198 14 3 360 7 12 7 5 0 357 347 338 342 340 336 332 338 350 354 355 359 357 355 352 356 3 8 11
212 210 196 178 165 186 186 179 180 165 166 183 183 189 183 182 183 189 179 192 209 256 290 322 346 6 0 357 352 351 351 347 335 331 329 324 322 326 333 340 344 348 345 345 344 343 345 348 351
214 202 195 174 178 191 197 193 191 177 178 192 196 200 199 202 201 203 212 205 235 261 283 307 337 353 351 346 349 350 347 342 334 327 323 318 317 320 324 327 330 335 338 339 338 337 333 335 337
213 199 194 186 186 200 207 203 197 187 191 215 201 209 209 215 215 220 229 244 265 283 294 320 336 341 343 345 345 343 341 336 328 322 319 313 311 312 314 316 324 330 331 334 333 333 332 330 331
206 201 201 196 208 218 221 213 206 195 205 218 221 219 214 219 226 230 233 254 264 269 276 302 321 333 335 337 338 335 334 330 325 320 317 312 309 307 309 318 323 326 329 330 330 328 327 324 324
208 207 204 203 216 215 229 223 215 211 215 230 233 229 226 224 232 235 240 248 260 268 274 292 309 323 325 328 330 328 325 319 317 316 313 310 306 298 305 313 315 318 319 321 321 321 320 318 316
209 216 215 212 227 235 240 232 229 226 228 239 244 240 238 232 235 240 247 249 261 269 276 288 305 314 317 323 325 322 319 315 314 314 311 309 298 297 307 304 307 314 316 317 317 316 316 314 312
215 222 225 225 222 233 240 240 241 240 240 238 240 250 237 240 239 243 249 256 261 267 274 291 303 308 315 317 319 317 315 312 311 311 309 306 297 297 306 304 305 310 315 314 314 311 309 309 308
219 227 231 232 232 236 243 244 244 242 247 246 239 248 248 244 240 244 250 257 263 266 275 290 298 303 310 315 314 313 312 310 311 309 306 302 291 290 297 298 303 311 313 314 311 307 304 302 300
226 232 239 242 239 240 244 250 253 245 251 256 249 247 255 252 243 242 249 254 262 271 281 290 291 301 308 311 310 310 310 308 310 308 305 300 289 287 292 297 300 308 312 312 308 301 299 298 293
230 236 245 249 245 243 249 255 258 266 259 259 261 257 253 255 254 249 250 259 266 273 281 285 291 300 306 307 308 308 307 307 309 311 306 299 292 288 292 297 300 305 306 308 306 298 297 298 294
234 237 241 248 259 257 255 260 267 265 256 261 264 266 260 255 253 255 256 256 265 272 277 282 289 297 302 304 306 306 306 307 307 309 307 298 291 287 290 294 298 304 305 303 300 298 298 297 296
246 245 248 257 258 261 264 261 271 264 265 265 264 264 266 263 258 257 257 259 264 270 273 278 287 292 299 303 303 304 304 305 304 304 303 295 289 288 290 292 296 302 304 299 296 297 297 296 294
256 257 260 259 259 263 265 267 270 272 272 269 267 267 268 265 263 264 263 262 265 268 270 275 282 290 297 303 301 302 302 302 301 300 299 293 290 290 290 291 294 299 302 301 297 297 298 295 291
266 266 261 255 259 264 267 270 273 273 272 271 273 273 270 268 266 267 264 262 263 264 266 271 279 288 296 302 304 302 301 299 298 297 297 294 292 292 290 292 297 300 301 298 296 296 296 295 293
261 260 263 266 265 267 267 270 269 273 271 270 273 276 275 271 269 265 265 263 261 260 263 267 276 287 293 300 305 301 300 298 295 296 296 295 294 293 293 295 299 300 299 299 298 299 296 292 291
263 266 268 269 270 267 266 266 265 267 269 273 271 271 271 273 267 270 271 267 262 259 260 265 275 284 291 299 302 301 298 297 294 296 296 295 295 295 296 298 300 301 300 300 299 298 296 294 292
269 272 273 271 270 271 272 271 266 263 266 268 271 271 273 272 273 270 270 267 262 259 260 265 272 283 289 296 300 298 297 296 295 295 295 295 297 298 299 299 300 300 299 299 298 299 298 297 296
266 269 272 270 268 270 273 274 272 266 265 269 271 272 272 273 270 267 266 265 262 261 261 264 271 280 287 293 296 296 295 295 293 294 294 295 299 299 299 299 300 300 299 299 299 301 301 302 302
270 270 269 269 271 272 273 275 273 271 272 272 273 273 271 270 269 267 265 264 261 259 263 267 270 278 285 291 293 293 294 291 292 293 295 298 298 298 299 300 300 300 299 300 302 304 306 305 305
272 271 270 271 272 272 271 273 270 277 273 278 274 271 271 271 268 265 263 262 260 260 262 266 272 279 284 289 290 291 290 291 291 294 298 299 298 299 299 301 300 299 300 304 307 307 307 307 310
269 270 272 272 272 268 270 274 268 275 279 278 277 274 274 270 264 263 262 263 260 261 265 268 273 279 285 287 288 289 289 290 293 296 297 297 298 299 300 299 301 302 305 307 309 310 310 311 314
267 270 271 267 266 272 274 272 271 274 279 277 277 278 276 267 266 263 262 264 261 264 266 271 275 281 284 285 287 287 287 290 294 295 297 298 298 299 300 301 302 304 308 311 311 312 315 317 317
262 258 261 265 269 273 267 268 277 273 273 277 278 281 280 274 263 260 257 262 265 265 269 272 276 279 281 283 284 285 287 291 293 295 297 297 298 300 301 302 304 307 311 313 314 315 318 321 325
267 263 265 265 262 264 265 268 268 273 274 274 270 270 276 274 265 256 258 265 266 269 272 276 278 280 282 281 281 283 287 290 293 295 296 297 298 301 301 304 306 311 313 314 316 319 320 325 323
262 264 263 261 262 263 264 266 268 270 270 271 271 269 268 267 266 264 270 266 265 270 275 275 275 278 279 278 279 283 287 290 293 296 297 298 299 301 302 306 309 313 314 316 318 320 324 329 320
264 262 262 265 263 265 267 263 263 266 268 271 270 272 272 270 268 270 269 265 269 273 274 273 276 277 276 275 278 282 286 292 296 298 297 299 301 302 305 308 312 314 315 317 319 322 327 329 320
261 262 262 259 262 263 265 264 265 266 270 270 270 270 266 266 268 271 270 268 271 275 278 275 274 276 274 275 279 282 289 294 298 299 300 301 302 303 307 310 314 314 317 317 321 325 331 323 320